| time (UTC) | temp C | wind direction | speed KPH | gust KPH | rain 1hr cm | rain 24hr cm | rain mn cm | humidity % | barometer mb |
| 20260510174754 | 21 | 97 | 3.2 | 3.2 | 0.00 | 0.00 | 0.00 | 49 | 1012.9 |
| 20260510174251 | 20 | 60 | 4.8 | 4.8 | 0.00 | 0.00 | 0.00 | 51 | 1012.8 |
| 20260510173748 | 20 | 70 | 4.8 | 8.0 | 0.00 | 0.00 | 0.00 | 51 | 1012.9 |
| 20260510173243 | 20 | 107 | 4.8 | 4.8 | 0.00 | 0.00 | 0.00 | 50 | 1012.7 |
| 20260510172739 | 20 | 99 | 4.8 | 8.0 | 0.00 | 0.00 | 0.00 | 48 | 1012.9 |
| 20260510172235 | 21 | 59 | 4.8 | 8.0 | 0.00 | 0.00 | 0.00 | 47 | 1013.0 |
| 20260510171732 | 20 | 91 | 4.8 | 8.0 | 0.00 | 0.00 | 0.00 | 57 | 1012.8 |
| 20260510171229 | 21 | 91 | 4.8 | 9.7 | 0.00 | 0.00 | 0.00 | 55 | 1012.9 |
| 20260510170727 | 20 | 69 | 3.2 | 4.8 | 0.00 | 0.00 | 0.00 | 57 | 1012.9 |
| 20260510170222 | 20 | 112 | 0.0 | 1.6 | 0.00 | 0.00 | 0.00 | 60 | 1012.9 |
| 20260510165718 | 20 | 68 | 3.2 | 3.2 | 0.00 | 0.00 | 0.00 | 55 | 1012.8 |
| 20260510165214 | 20 | 100 | 1.6 | 1.6 | 0.00 | 0.00 | 0.00 | 56 | 1012.8 |
| 20260510164712 | 20 | 78 | 1.6 | 1.6 | 0.00 | 0.00 | 0.00 | 55 | 1012.8 |
| 20260510164209 | 20 | 74 | 8.0 | 11.3 | 0.00 | 0.00 | 0.00 | 53 | 1012.7 |
| 20260510163704 | 20 | 78 | 3.2 | 3.2 | 0.00 | 0.00 | 0.00 | 54 | 1012.6 |
| 20260510163200 | 20 | 346 | 4.8 | 8.0 | 0.00 | 0.00 | 0.00 | 54 | 1012.8 |
| 20260510162700 | 20 | 83 | 1.6 | 1.6 | 0.00 | 0.00 | 0.00 | 53 | 1012.7 |
| 20260510162157 | 20 | 37 | 3.2 | 4.8 | 0.00 | 0.00 | 0.00 | 56 | 1012.6 |
| 20260510161652 | 19 | 73 | 3.2 | 3.2 | 0.00 | 0.00 | 0.00 | 56 | 1012.3 |
| 20260510161149 | 18 | 85 | 1.6 | 3.2 | 0.00 | 0.00 | 0.00 | 56 | 1012.4 |
| 20260510160646 | 19 | 82 | 3.2 | 3.2 | 0.00 | 0.00 | 0.00 | 57 | 1012.3 |
| 20260510160142 | 19 | 54 | 3.2 | 3.2 | 0.00 | 0.00 | 0.00 | 59 | 1012.2 |
| 20260510155638 | 19 | 107 | 0.0 | 1.6 | 0.00 | 0.00 | 0.00 | 59 | 1012.3 |
| 20260510155134 | 19 | 84 | 4.8 | 4.8 | 0.00 | 0.00 | 0.00 | 59 | 1012.3 |
| 20260510154630 | 18 | 81 | 4.8 | 4.8 | 0.00 | 0.00 | 0.00 | 62 | 1012.3 |
| 20260510154125 | 19 | 91 | 6.4 | 9.7 | 0.00 | 0.00 | 0.00 | 61 | 1012.4 |
| 20260510153621 | 19 | 109 | 0.0 | 1.6 | 0.00 | 0.00 | 0.00 | 65 | 1012.4 |
| 20260510153117 | 18 | 105 | 1.6 | 1.6 | 0.00 | 0.00 | 0.00 | 66 | 1012.5 |
| 20260510152614 | 18 | 112 | 1.6 | 1.6 | 0.00 | 0.00 | 0.00 | 66 | 1012.4 |
| 20260510152110 | 18 | 101 | 3.2 | 3.2 | 0.00 | 0.00 | 0.00 | 65 | 1012.7 |
| 20260510151607 | 18 | 121 | 3.2 | 11.3 | 0.00 | 0.00 | 0.00 | 64 | 1012.7 |
| 20260510151105 | 18 | 98 | 1.6 | 3.2 | 0.00 | 0.00 | 0.00 | 66 | 1012.7 |
| 20260510150600 | 18 | 86 | 1.6 | 1.6 | 0.00 | 0.00 | 0.00 | 66 | 1012.5 |
| 20260510150055 | 18 | 96 | 3.2 | 4.8 | 0.00 | 0.00 | 0.00 | 64 | 1012.8 |
| 20260510145553 | 18 | 92 | 6.4 | 8.0 | 0.00 | 0.00 | 0.00 | 65 | 1012.5 |
| 20260510145049 | 18 | 67 | 3.2 | 9.7 | 0.00 | 0.00 | 0.00 | 66 | 1012.2 |
| 20260510144546 | 18 | 122 | 6.4 | 9.7 | 0.00 | 0.00 | 0.00 | 65 | 1012.2 |
| 20260510144042 | 18 | 87 | 3.2 | 3.2 | 0.00 | 0.00 | 0.00 | 66 | 1012.1 |
| 20260510143537 | 18 | 103 | 1.6 | 3.2 | 0.00 | 0.00 | 0.00 | 66 | 1012.1 |
| 20260510143034 | 18 | 118 | 0.0 | 0.0 | 0.00 | 0.00 | 0.00 | 68 | 1012.1 |
| 20260510142530 | 17 | 101 | 1.6 | 3.2 | 0.00 | 0.00 | 0.00 | 69 | 1012.4 |
| 20260510142027 | 17 | 66 | 4.8 | 8.0 | 0.00 | 0.00 | 0.00 | 68 | 1012.1 |
| 20260510141524 | 17 | 71 | 3.2 | 4.8 | 0.00 | 0.00 | 0.00 | 68 | 1012.2 |
| 20260510141021 | 17 | 104 | 0.0 | 1.6 | 0.00 | 0.00 | 0.00 | 70 | 1012.0 |
| 20260510140517 | 17 | 45 | 0.0 | 1.6 | 0.00 | 0.00 | 0.00 | 71 | 1012.2 |
| 20260510140017 | 17 | 101 | 1.6 | 3.2 | 0.00 | 0.00 | 0.00 | 74 | 1012.0 |
| 20260510135513 | 17 | 113 | 1.6 | 1.6 | 0.00 | 0.00 | 0.00 | 76 | 1012.0 |
| 20260510135009 | 17 | 77 | 1.6 | 3.2 | 0.00 | 0.00 | 0.00 | 75 | 1011.7 |
| 20260510134507 | 17 | 104 | 1.6 | 3.2 | 0.00 | 0.00 | 0.00 | 76 | 1011.7 |
| 20260510134003 | 17 | 96 | 0.0 | 1.6 | 0.00 | 0.00 | 0.00 | 77 | 1011.2 |
| 20260510133459 | 17 | 52 | 4.8 | 8.0 | 0.00 | 0.00 | 0.00 | 78 | 1011.2 |
| 20260510132955 | 17 | 80 | 1.6 | 3.2 | 0.00 | 0.00 | 0.00 | 80 | 1011.5 |
| 20260510132453 | 16 | 108 | 0.0 | 1.6 | 0.00 | 0.00 | 0.00 | 83 | 1011.1 |
| 20260510131949 | 16 | 99 | 4.8 | 9.7 | 0.00 | 0.00 | 0.00 | 81 | 1011.2 |
| 20260510131447 | 16 | 82 | 3.2 | 3.2 | 0.00 | 0.00 | 0.00 | 82 | 1011.0 |
| 20260510130944 | 16 | 37 | 1.6 | 3.2 | 0.00 | 0.00 | 0.00 | 83 | 1010.7 |
| 20260510130440 | 16 | 81 | 1.6 | 3.2 | 0.00 | 0.00 | 0.00 | 83 | 1010.9 |
| 20260510125938 | 15 | 127 | 1.6 | 1.6 | 0.00 | 0.00 | 0.00 | 90 | 1010.8 |
| 20260510125434 | 15 | 104 | 0.0 | 0.0 | 0.00 | 0.00 | 0.00 | 90 | 1010.8 |
| 20260510124930 | 14 | 80 | 3.2 | 3.2 | 0.00 | 0.00 | 0.00 | 91 | 1010.5 |
| 20260510124427 | 13 | 86 | 3.2 | 3.2 | 0.00 | 0.00 | 0.00 | 95 | 1010.7 |
| 20260510123924 | 13 | 92 | 1.6 | 1.6 | 0.00 | 0.00 | 0.00 | 99 | 1010.6 |
| 20260510123419 | 12 | 113 | 0.0 | 0.0 | 0.00 | 0.00 | 0.00 | 99 | 1010.8 |
| 20260510122916 | 12 | 106 | 0.0 | 0.0 | 0.00 | 0.00 | 0.00 | 99 | 1010.7 |
| 20260510122410 | 11 | 96 | 0.0 | 1.6 | 0.00 | 0.00 | 0.00 | 99 | 1010.6 |
| 20260510121907 | 11 | 117 | 0.0 | 0.0 | 0.00 | 0.00 | 0.00 | 99 | 1010.4 |
| 20260510121405 | 11 | 115 | 0.0 | 0.0 | 0.00 | 0.00 | 0.00 | 99 | 1010.5 |
| 20260510120902 | 11 | 113 | 0.0 | 0.0 | 0.00 | 0.00 | 0.00 | 99 | 1010.3 |
| 20260510120359 | 10 | 114 | 0.0 | 0.0 | 0.00 | 0.00 | 0.00 | 99 | 1010.3 |
| 20260510115854 | 10 | 118 | 0.0 | 0.0 | 0.00 | 0.00 | 0.00 | 99 | 1010.2 |
| 20260510115352 | 10 | 117 | 0.0 | 0.0 | 0.00 | 0.00 | 0.00 | 99 | 1010.4 |
| 20260510114847 | 10 | 117 | 0.0 | 0.0 | 0.00 | 0.00 | 0.00 | 99 | 1010.3 |
| 20260510114345 | 10 | 118 | 0.0 | 0.0 | 0.00 | 0.00 | 0.00 | 99 | 1010.2 |
| 20260510113845 | 10 | 119 | 0.0 | 0.0 | 0.00 | 0.00 | 0.00 | 99 | 1010.1 |
| 20260510113341 | 10 | 118 | 0.0 | 0.0 | 0.00 | 0.00 | 0.00 | 99 | 1009.8 |
| 20260510112838 | 10 | 118 | 0.0 | 0.0 | 0.00 | 0.00 | 0.00 | 99 | 1009.6 |
| 20260510112336 | 10 | 118 | 0.0 | 0.0 | 0.00 | 0.00 | 0.00 | 99 | 1009.6 |
| 20260510111831 | 10 | 123 | 0.0 | 0.0 | 0.00 | 0.00 | 0.00 | 99 | 1009.2 |
| 20260510111328 | 10 | 122 | 0.0 | 0.0 | 0.00 | 0.00 | 0.00 | 99 | 1009.4 |
| 20260510110822 | 10 | 118 | 0.0 | 0.0 | 0.00 | 0.00 | 0.00 | 99 | 1009.4 |
| 20260510110320 | 10 | 118 | 0.0 | 0.0 | 0.00 | 0.00 | 0.00 | 99 | 1009.4 |
| 20260510105815 | 10 | 117 | 0.0 | 0.0 | 0.00 | 0.00 | 0.00 | 99 | 1009.5 |
| 20260510105310 | 10 | 121 | 0.0 | 0.0 | 0.00 | 0.00 | 0.00 | 99 | 1009.3 |
| 20260510104807 | 10 | 118 | 0.0 | 0.0 | 0.00 | 0.00 | 0.00 | 99 | 1009.3 |
| 20260510104305 | 10 | 118 | 0.0 | 0.0 | 0.00 | 0.00 | 0.00 | 99 | 1009.5 |
| 20260510103801 | 10 | 117 | 0.0 | 0.0 | 0.00 | 0.00 | 0.00 | 99 | 1009.3 |
| 20260510103257 | 10 | 116 | 0.0 | 0.0 | 0.00 | 0.00 | 0.00 | 99 | 1009.2 |
| 20260510102752 | 10 | 124 | 0.0 | 0.0 | 0.00 | 0.00 | 0.00 | 99 | 1009.0 |
| 20260510102248 | 10 | 123 | 0.0 | 0.0 | 0.00 | 0.00 | 0.00 | 99 | 1008.9 |
| 20260510101746 | 10 | 116 | 0.0 | 0.0 | 0.00 | 0.00 | 0.00 | 99 | 1008.6 |
| 20260510101244 | 10 | 123 | 0.0 | 0.0 | 0.00 | 0.00 | 0.00 | 99 | 1008.7 |
| 20260510100740 | 10 | 123 | 0.0 | 0.0 | 0.00 | 0.00 | 0.00 | 99 | 1008.5 |
| 20260510100238 | 10 | 123 | 0.0 | 0.0 | 0.00 | 0.00 | 0.00 | 99 | 1008.2 |
| 20260510095733 | 10 | 113 | 0.0 | 0.0 | 0.00 | 0.00 | 0.00 | 99 | 1008.2 |
| 20260510095229 | 10 | 116 | 0.0 | 0.0 | 0.00 | 0.00 | 0.00 | 99 | 1008.4 |
| 20260510094727 | 10 | 116 | 0.0 | 0.0 | 0.00 | 0.00 | 0.00 | 99 | 1008.5 |
| 20260510094223 | 10 | 119 | 0.0 | 0.0 | 0.00 | 0.00 | 0.00 | 99 | 1008.5 |
| 20260510093719 | 10 | 116 | 0.0 | 0.0 | 0.00 | 0.00 | 0.00 | 99 | 1008.6 |
| 20260510093217 | 10 | 122 | 0.0 | 0.0 | 0.00 | 0.00 | 0.00 | 99 | 1008.4 |
| 20260510092713 | 10 | 116 | 0.0 | 0.0 | 0.00 | 0.00 | 0.00 | 99 | 1008.2 |
| 20260510092209 | 10 | 123 | 0.0 | 0.0 | 0.00 | 0.00 | 0.00 | 99 | 1008.1 |
| 20260510091704 | 11 | 116 | 0.0 | 0.0 | 0.00 | 0.00 | 0.00 | 99 | 1008.4 |
| 20260510091201 | 11 | 114 | 0.0 | 0.0 | 0.00 | 0.00 | 0.00 | 99 | 1007.9 |
| 20260510090658 | 11 | 126 | 0.0 | 0.0 | 0.00 | 0.00 | 0.00 | 99 | 1008.0 |
| 20260510090154 | 11 | 141 | 1.6 | 1.6 | 0.00 | 0.00 | 0.00 | 99 | 1007.8 |
| 20260510085649 | 10 | 113 | 0.0 | 0.0 | 0.00 | 0.00 | 0.00 | 99 | 1007.7 |
| 20260510085145 | 10 | 139 | 1.6 | 1.6 | 0.00 | 0.00 | 0.00 | 99 | 1007.7 |
| 20260510084641 | 10 | 116 | 0.0 | 0.0 | 0.00 | 0.00 | 0.00 | 99 | 1007.8 |
| 20260510084138 | 10 | 116 | 0.0 | 0.0 | 0.00 | 0.00 | 0.00 | 99 | 1007.6 |
| 20260510083635 | 10 | 117 | 0.0 | 0.0 | 0.00 | 0.00 | 0.00 | 99 | 1007.6 |
| 20260510083132 | 10 | 117 | 0.0 | 0.0 | 0.00 | 0.00 | 0.00 | 99 | 1007.6 |
| 20260510082628 | 10 | 119 | 0.0 | 0.0 | 0.00 | 0.00 | 0.00 | 99 | 1007.9 |
| 20260510082123 | 10 | 121 | 0.0 | 0.0 | 0.00 | 0.00 | 0.00 | 99 | 1007.9 |
| 20260510081623 | 11 | 117 | 0.0 | 0.0 | 0.00 | 0.00 | 0.00 | 99 | 1007.7 |
| 20260510081120 | 11 | 117 | 0.0 | 0.0 | 0.00 | 0.00 | 0.00 | 99 | 1007.9 |
| 20260510080619 | 11 | 114 | 0.0 | 0.0 | 0.00 | 0.00 | 0.00 | 99 | 1008.0 |
| 20260510080116 | 11 | 124 | 0.0 | 0.0 | 0.00 | 0.00 | 0.00 | 99 | 1007.9 |
| 20260510075614 | 11 | 122 | 0.0 | 0.0 | 0.00 | 0.00 | 0.00 | 99 | 1007.9 |
| 20260510075111 | 11 | 113 | 0.0 | 0.0 | 0.00 | 0.00 | 0.00 | 99 | 1007.6 |
| 20260510074607 | 11 | 121 | 0.0 | 0.0 | 0.00 | 0.00 | 0.00 | 99 | 1007.7 |
| 20260510074103 | 11 | 111 | 0.0 | 0.0 | 0.00 | 0.00 | 0.00 | 99 | 1007.5 |
| 20260510073559 | 11 | 117 | 0.0 | 0.0 | 0.00 | 0.00 | 0.00 | 99 | 1007.7 |
| 20260510073056 | 11 | 127 | 0.0 | 0.0 | 0.00 | 0.00 | 0.00 | 99 | 1007.6 |
| 20260510072553 | 11 | 124 | 1.6 | 1.6 | 0.00 | 0.00 | 0.00 | 99 | 1007.6 |
| 20260510072048 | 11 | 141 | 1.6 | 1.6 | 0.00 | 0.00 | 0.00 | 99 | 1007.7 |
| 20260510071544 | 11 | 111 | 0.0 | 0.0 | 0.00 | 0.00 | 0.00 | 99 | 1007.6 |
| 20260510071043 | 11 | 130 | 0.0 | 0.0 | 0.00 | 0.00 | 0.00 | 99 | 1007.5 |
| 20260510070539 | 11 | 122 | 0.0 | 0.0 | 0.00 | 0.00 | 0.00 | 99 | 1007.4 |
| 20260510070036 | 11 | 117 | 0.0 | 0.0 | 0.00 | 0.00 | 0.00 | 99 | 1007.3 |
| 20260510065533 | 11 | 128 | 0.0 | 0.0 | 0.00 | 0.00 | 0.00 | 99 | 1007.7 |
| 20260510065029 | 11 | 106 | 0.0 | 1.6 | 0.00 | 0.00 | 0.00 | 99 | 1007.8 |
| 20260510064525 | 11 | 124 | 0.0 | 0.0 | 0.00 | 0.00 | 0.00 | 99 | 1007.5 |
| 20260510064022 | 11 | 113 | 0.0 | 0.0 | 0.00 | 0.00 | 0.00 | 99 | 1007.6 |
| 20260510063519 | 11 | 113 | 0.0 | 0.0 | 0.00 | 0.00 | 0.00 | 99 | 1007.6 |
| 20260510063016 | 11 | 123 | 0.0 | 0.0 | 0.00 | 0.00 | 0.00 | 99 | 1007.7 |
| 20260510062512 | 11 | 132 | 0.0 | 0.0 | 0.00 | 0.00 | 0.00 | 99 | 1007.7 |
| 20260510062007 | 11 | 128 | 1.6 | 1.6 | 0.00 | 0.00 | 0.00 | 99 | 1007.9 |
| 20260510061504 | 11 | 101 | 1.6 | 1.6 | 0.00 | 0.00 | 0.00 | 99 | 1007.7 |
| 20260510061000 | 11 | 134 | 0.0 | 1.6 | 0.00 | 0.00 | 0.00 | 98 | 1007.9 |
| 20260510060452 | 11 | 133 | 1.6 | 1.6 | 0.00 | 0.00 | 0.00 | 98 | 1007.8 |
| 20260510055948 | 11 | 168 | 1.6 | 1.6 | 0.00 | 0.00 | 0.00 | 98 | 1007.8 |
| 20260510055444 | 11 | 108 | 0.0 | 0.0 | 0.00 | 0.00 | 0.00 | 99 | 1007.6 |
| 20260510054942 | 11 | 96 | 0.0 | 0.0 | 0.00 | 0.00 | 0.00 | 98 | 1007.7 |
| 20260510054437 | 11 | 118 | 0.0 | 0.0 | 0.00 | 0.00 | 0.00 | 97 | 1007.2 |
| 20260510053932 | 11 | 118 | 0.0 | 0.0 | 0.00 | 0.00 | 0.00 | 97 | 1006.9 |
| 20260510053428 | 11 | 123 | 0.0 | 0.0 | 0.00 | 0.00 | 0.00 | 97 | 1006.9 |
| 20260510052925 | 11 | 123 | 0.0 | 0.0 | 0.00 | 0.00 | 0.00 | 97 | 1006.9 |
| 20260510052420 | 11 | 122 | 0.0 | 0.0 | 0.00 | 0.00 | 0.00 | 96 | 1006.9 |
| 20260510051917 | 11 | 119 | 0.0 | 0.0 | 0.00 | 0.00 | 0.00 | 96 | 1006.9 |
| 20260510051414 | 11 | 118 | 0.0 | 0.0 | 0.00 | 0.00 | 0.00 | 96 | 1006.9 |
| 20260510050910 | 11 | 124 | 0.0 | 0.0 | 0.00 | 0.00 | 0.00 | 96 | 1006.9 |
| 20260510050407 | 11 | 129 | 0.0 | 0.0 | 0.00 | 0.00 | 0.00 | 96 | 1007.0 |
| 20260510045904 | 11 | 123 | 0.0 | 0.0 | 0.00 | 0.03 | 0.03 | 95 | 1006.9 |
| 20260510045401 | 11 | 117 | 0.0 | 0.0 | 0.00 | 0.03 | 0.03 | 95 | 1007.0 |
| 20260510044858 | 11 | 117 | 0.0 | 0.0 | 0.00 | 0.03 | 0.03 | 95 | 1007.1 |
| 20260510044355 | 11 | 118 | 0.0 | 0.0 | 0.00 | 0.03 | 0.03 | 94 | 1006.9 |
| 20260510043851 | 11 | 117 | 0.0 | 0.0 | 0.00 | 0.03 | 0.03 | 94 | 1006.9 |
| 20260510043347 | 12 | 121 | 0.0 | 0.0 | 0.00 | 0.03 | 0.03 | 94 | 1006.6 |
| 20260510042846 | 12 | 123 | 0.0 | 0.0 | 0.00 | 0.03 | 0.03 | 94 | 1006.4 |
| 20260510042341 | 12 | 121 | 0.0 | 0.0 | 0.00 | 0.03 | 0.03 | 93 | 1006.2 |
| 20260510041837 | 12 | 118 | 0.0 | 0.0 | 0.00 | 0.03 | 0.03 | 92 | 1006.4 |
| 20260510041334 | 12 | 118 | 0.0 | 0.0 | 0.00 | 0.03 | 0.03 | 92 | 1006.3 |
| 20260510040832 | 12 | 121 | 0.0 | 0.0 | 0.00 | 0.03 | 0.03 | 92 | 1006.3 |
| 20260510040328 | 12 | 119 | 0.0 | 0.0 | 0.00 | 0.03 | 0.03 | 92 | 1006.3 |
| 20260510035824 | 12 | 118 | 0.0 | 0.0 | 0.00 | 0.03 | 0.03 | 92 | 1006.6 |
| 20260510035320 | 12 | 124 | 0.0 | 0.0 | 0.00 | 0.03 | 0.03 | 91 | 1006.7 |
| 20260510034815 | 12 | 117 | 0.0 | 0.0 | 0.00 | 0.03 | 0.03 | 89 | 1006.5 |
| 20260510034314 | 12 | 117 | 0.0 | 0.0 | 0.00 | 0.03 | 0.03 | 89 | 1006.7 |
| 20260510033810 | 13 | 119 | 0.0 | 0.0 | 0.00 | 0.03 | 0.03 | 89 | 1006.5 |
| 20260510033307 | 13 | 120 | 0.0 | 0.0 | 0.00 | 0.03 | 0.03 | 88 | 1006.5 |
| 20260510032804 | 13 | 120 | 0.0 | 0.0 | 0.00 | 0.03 | 0.03 | 88 | 1006.5 |
| 20260510032301 | 13 | 121 | 0.0 | 0.0 | 0.00 | 0.03 | 0.03 | 87 | 1006.5 |
| 20260510031756 | 13 | 121 | 0.0 | 0.0 | 0.00 | 0.03 | 0.03 | 87 | 1006.4 |
| 20260510031251 | 13 | 125 | 0.0 | 0.0 | 0.00 | 0.03 | 0.03 | 86 | 1006.3 |
| 20260510030745 | 13 | 132 | 0.0 | 0.0 | 0.00 | 0.03 | 0.03 | 86 | 1006.0 |
| 20260510030242 | 13 | 122 | 0.0 | 0.0 | 0.00 | 0.03 | 0.03 | 85 | 1006.0 |
| 20260510025739 | 13 | 120 | 0.0 | 0.0 | 0.00 | 0.03 | 0.03 | 84 | 1005.7 |
| 20260510025237 | 14 | 117 | 0.0 | 0.0 | 0.00 | 0.03 | 0.03 | 83 | 1006.1 |
| 20260510024733 | 14 | 116 | 0.0 | 0.0 | 0.00 | 0.03 | 0.03 | 84 | 1005.8 |
| 20260510024230 | 14 | 132 | 0.0 | 1.6 | 0.00 | 0.03 | 0.03 | 83 | 1005.9 |
| 20260510023725 | 15 | 134 | 0.0 | 1.6 | 0.00 | 0.03 | 0.03 | 82 | 1005.7 |
| 20260510023223 | 15 | 123 | 0.0 | 0.0 | 0.00 | 0.03 | 0.03 | 81 | 1005.6 |
| 20260510022719 | 15 | 116 | 0.0 | 0.0 | 0.00 | 0.03 | 0.03 | 80 | 1005.6 |
| 20260510022214 | 15 | 127 | 0.0 | 0.0 | 0.00 | 0.03 | 0.03 | 79 | 1005.6 |
| 20260510021709 | 15 | 122 | 0.0 | 0.0 | 0.00 | 0.03 | 0.03 | 77 | 1005.3 |
| 20260510021207 | 15 | 124 | 0.0 | 0.0 | 0.00 | 0.03 | 0.03 | 76 | 1005.1 |
| 20260510020702 | 16 | 124 | 0.0 | 0.0 | 0.00 | 0.03 | 0.03 | 75 | 1005.2 |
| 20260510020156 | 16 | 124 | 0.0 | 0.0 | 0.00 | 0.03 | 0.03 | 75 | 1005.0 |
| 20260510015653 | 16 | 129 | 0.0 | 0.0 | 0.00 | 0.03 | 0.03 | 74 | 1005.1 |
| 20260510015150 | 16 | 126 | 0.0 | 0.0 | 0.00 | 0.03 | 0.03 | 73 | 1004.8 |
| 20260510014649 | 16 | 128 | 0.0 | 0.0 | 0.00 | 0.03 | 0.03 | 73 | 1004.7 |
| 20260510014147 | 16 | 126 | 0.0 | 0.0 | 0.00 | 0.03 | 0.03 | 72 | 1004.4 |
| 20260510013642 | 17 | 124 | 0.0 | 0.0 | 0.00 | 0.03 | 0.03 | 71 | 1004.3 |
| 20260510013138 | 17 | 124 | 0.0 | 0.0 | 0.00 | 0.03 | 0.03 | 70 | 1004.3 |
| 20260510012638 | 17 | 125 | 0.0 | 0.0 | 0.00 | 0.03 | 0.03 | 70 | 1004.4 |
| 20260510012134 | 17 | 126 | 0.0 | 0.0 | 0.00 | 0.03 | 0.03 | 71 | 1004.2 |
| 20260510011634 | 17 | 132 | 0.0 | 0.0 | 0.00 | 0.03 | 0.03 | 68 | 1004.2 |
| 20260510011130 | 18 | 126 | 0.0 | 0.0 | 0.00 | 0.03 | 0.03 | 68 | 1004.2 |
| 20260510010626 | 18 | 126 | 0.0 | 0.0 | 0.00 | 0.03 | 0.03 | 69 | 1004.2 |
| 20260510010124 | 18 | 125 | 0.0 | 0.0 | 0.00 | 0.03 | 0.03 | 69 | 1004.3 |
| 20260510005619 | 18 | 126 | 0.0 | 0.0 | 0.00 | 0.03 | 0.03 | 69 | 1004.0 |
| 20260510005117 | 19 | 130 | 0.0 | 0.0 | 0.00 | 0.03 | 0.03 | 68 | 1003.9 |
| 20260510004615 | 20 | 130 | 0.0 | 0.0 | 0.00 | 0.03 | 0.03 | 67 | 1003.8 |
| 20260510004113 | 20 | 131 | 0.0 | 0.0 | 0.00 | 0.03 | 0.03 | 68 | 1003.8 |
| 20260510003609 | 20 | 138 | 0.0 | 0.0 | 0.00 | 0.03 | 0.03 | 66 | 1003.8 |
| 20260510003105 | 21 | 132 | 0.0 | 0.0 | 0.00 | 0.03 | 0.03 | 65 | 1003.9 |
| 20260510002600 | 21 | 131 | 0.0 | 0.0 | 0.00 | 0.03 | 0.03 | 62 | 1003.7 |
| 20260510002057 | 22 | 135 | 0.0 | 0.0 | 0.00 | 0.03 | 0.03 | 59 | 1003.5 |
| 20260510001555 | 22 | 135 | 0.0 | 0.0 | 0.00 | 0.03 | 0.03 | 57 | 1003.8 |
| 20260510001054 | 23 | 144 | 1.6 | 1.6 | 0.00 | 0.03 | 0.03 | 52 | 1003.7 |
| 20260510000554 | 23 | 139 | 0.0 | 0.0 | 0.00 | 0.03 | 0.03 | 53 | 1003.7 |
| 20260510000051 | 24 | 148 | 1.6 | 1.6 | 0.00 | 0.03 | 0.03 | 49 | 1003.9 |
| 20260509235547 | 25 | 153 | 1.6 | 1.6 | 0.00 | 0.03 | 0.03 | 47 | 1003.9 |
| 20260509235044 | 26 | 142 | 0.0 | 1.6 | 0.00 | 0.03 | 0.03 | 44 | 1003.6 |
| 20260509234540 | 27 | 137 | 0.0 | 0.0 | 0.00 | 0.03 | 0.03 | 40 | 1003.8 |
| 20260509234038 | 27 | 163 | 1.6 | 1.6 | 0.00 | 0.03 | 0.03 | 38 | 1003.7 |
| 20260509233535 | 28 | 153 | 0.0 | 1.6 | 0.00 | 0.03 | 0.03 | 38 | 1003.9 |
| 20260509233033 | 28 | 137 | 0.0 | 0.0 | 0.00 | 0.03 | 0.03 | 36 | 1003.7 |
| 20260509232529 | 28 | 154 | 0.0 | 1.6 | 0.00 | 0.03 | 0.03 | 34 | 1003.7 |
| 20260509232026 | 29 | 144 | 3.2 | 3.2 | 0.00 | 0.03 | 0.03 | 31 | 1003.5 |
| 20260509231522 | 29 | 123 | 0.0 | 0.0 | 0.00 | 0.03 | 0.03 | 39 | 1003.7 |
| 20260509231020 | 30 | 160 | 1.6 | 1.6 | 0.00 | 0.03 | 0.03 | 34 | 1003.7 |
| 20260509230517 | 30 | 137 | 0.0 | 1.6 | 0.00 | 0.03 | 0.03 | 36 | 1003.6 |
| 20260509230014 | 29 | 136 | 0.0 | 0.0 | 0.00 | 0.03 | 0.03 | 30 | 1003.7 |
| 20260509225509 | 30 | 156 | 1.6 | 1.6 | 0.00 | 0.03 | 0.03 | 32 | 1003.7 |
| 20260509225005 | 30 | 145 | 0.0 | 0.0 | 0.00 | 0.03 | 0.03 | 34 | 1003.5 |
| 20260509224500 | 30 | 175 | 3.2 | 3.2 | 0.00 | 0.03 | 0.03 | 30 | 1003.7 |
| 20260509223957 | 30 | 124 | 0.0 | 0.0 | 0.00 | 0.03 | 0.03 | 29 | 1003.9 |
| 20260509223454 | 30 | 166 | 0.0 | 1.6 | 0.00 | 0.03 | 0.03 | 33 | 1003.8 |
| 20260509222952 | 30 | 161 | 1.6 | 1.6 | 0.00 | 0.03 | 0.03 | 27 | 1003.8 |
| 20260509222447 | 30 | 140 | 0.0 | 0.0 | 0.00 | 0.03 | 0.03 | 36 | 1003.8 |
| 20260509221943 | 29 | 133 | 1.6 | 3.2 | 0.00 | 0.03 | 0.03 | 29 | 1003.6 |
| 20260509221440 | 29 | 187 | 4.8 | 4.8 | 0.00 | 0.03 | 0.03 | 29 | 1003.8 |
| 20260509220935 | 28 | 188 | 1.6 | 3.2 | 0.00 | 0.03 | 0.03 | 29 | 1003.5 |
| 20260509220432 | 30 | 146 | 1.6 | 1.6 | 0.00 | 0.03 | 0.03 | 33 | 1003.7 |
| 20260509215928 | 30 | 163 | 1.6 | 3.2 | 0.00 | 0.03 | 0.03 | 29 | 1003.5 |
| 20260509215424 | 29 | 134 | 1.6 | 1.6 | 0.00 | 0.03 | 0.03 | 33 | 1003.5 |
| 20260509214921 | 28 | 152 | 1.6 | 3.2 | 0.00 | 0.03 | 0.03 | 32 | 1003.5 |
| 20260509214418 | 28 | 191 | 8.0 | 9.7 | 0.00 | 0.03 | 0.03 | 30 | 1003.4 |
| 20260509213915 | 28 | 81 | 3.2 | 3.2 | 0.00 | 0.03 | 0.03 | 35 | 1003.6 |
| 20260509213410 | 28 | 177 | 0.0 | 1.6 | 0.00 | 0.03 | 0.03 | 34 | 1003.5 |
| 20260509212909 | 29 | 238 | 4.8 | 4.8 | 0.00 | 0.03 | 0.03 | 30 | 1003.6 |
| 20260509212406 | 28 | 182 | 3.2 | 3.2 | 0.00 | 0.03 | 0.03 | 32 | 1003.5 |
| 20260509211902 | 28 | 295 | 4.8 | 4.8 | 0.00 | 0.03 | 0.03 | 33 | 1003.5 |
| 20260509211358 | 28 | 134 | 0.0 | 0.0 | 0.00 | 0.03 | 0.03 | 31 | 1003.8 |
| 20260509210854 | 28 | 42 | 3.2 | 4.8 | 0.00 | 0.03 | 0.03 | 36 | 1003.7 |
| 20260509210352 | 29 | 183 | 6.4 | 9.7 | 0.00 | 0.03 | 0.03 | 33 | 1003.7 |
| 20260509205852 | 29 | 180 | 4.8 | 4.8 | 0.00 | 0.03 | 0.03 | 30 | 1004.0 |
| 20260509205346 | 30 | 275 | 3.2 | 3.2 | 0.00 | 0.03 | 0.03 | 28 | 1004.0 |
| 20260509204843 | 30 | 146 | 1.6 | 1.6 | 0.00 | 0.03 | 0.03 | 35 | 1003.9 |
| 20260509204339 | 30 | 154 | 1.6 | 1.6 | 0.00 | 0.03 | 0.03 | 38 | 1004.1 |
| 20260509203836 | 28 | 145 | 3.2 | 3.2 | 0.00 | 0.03 | 0.03 | 34 | 1004.0 |
| 20260509203333 | 29 | 225 | 1.6 | 3.2 | 0.00 | 0.03 | 0.03 | 36 | 1004.1 |
| 20260509202829 | 29 | 191 | 1.6 | 3.2 | 0.00 | 0.03 | 0.03 | 42 | 1004.1 |
| 20260509202326 | 29 | 141 | 1.6 | 3.2 | 0.00 | 0.03 | 0.03 | 32 | 1004.2 |
| 20260509201825 | 30 | 97 | 1.6 | 1.6 | 0.00 | 0.03 | 0.03 | 31 | 1004.3 |
| 20260509201322 | 29 | 110 | 0.0 | 0.0 | 0.00 | 0.03 | 0.03 | 35 | 1004.4 |
| 20260509200818 | 30 | 190 | 4.8 | 4.8 | 0.00 | 0.03 | 0.03 | 34 | 1004.4 |
| 20260509200314 | 29 | 120 | 1.6 | 1.6 | 0.00 | 0.03 | 0.03 | 37 | 1004.5 |
| 20260509195810 | 28 | 149 | 1.6 | 1.6 | 0.00 | 0.03 | 0.03 | 32 | 1004.4 |
| 20260509195306 | 28 | 222 | 4.8 | 8.0 | 0.00 | 0.03 | 0.03 | 33 | 1004.5 |
| 20260509194805 | 28 | 222 | 4.8 | 4.8 | 0.00 | 0.03 | 0.03 | 33 | 1004.2 |
| 20260509194301 | 28 | 179 | 3.2 | 3.2 | 0.00 | 0.03 | 0.03 | 41 | 1004.3 |
| 20260509193758 | 28 | 185 | 4.8 | 11.3 | 0.00 | 0.03 | 0.03 | 40 | 1004.5 |
| 20260509193258 | 28 | 205 | 1.6 | 4.8 | 0.00 | 0.03 | 0.03 | 36 | 1004.3 |
| 20260509192754 | 27 | 41 | 1.6 | 1.6 | 0.00 | 0.03 | 0.03 | 37 | 1004.4 |
| 20260509192249 | 28 | 204 | 4.8 | 4.8 | 0.00 | 0.03 | 0.03 | 33 | 1004.5 |
| 20260509191745 | 27 | 161 | 1.6 | 3.2 | 0.00 | 0.03 | 0.03 | 35 | 1004.5 |
| 20260509191242 | 27 | 240 | 4.8 | 4.8 | 0.00 | 0.03 | 0.03 | 35 | 1004.4 |
| 20260509190738 | 27 | 12 | 3.2 | 3.2 | 0.00 | 0.03 | 0.03 | 37 | 1004.5 |
| 20260509190235 | 27 | 11 | 3.2 | 4.8 | 0.00 | 0.03 | 0.03 | 39 | 1004.4 |
| 20260509185732 | 27 | 133 | 1.6 | 1.6 | 0.00 | 0.03 | 0.03 | 37 | 1004.7 |
| 20260509185228 | 27 | 156 | 4.8 | 4.8 | 0.00 | 0.03 | 0.03 | 38 | 1004.7 |
| 20260509184726 | 27 | 187 | 4.8 | 9.7 | 0.00 | 0.03 | 0.03 | 34 | 1004.3 |
| 20260509184223 | 27 | 191 | 4.8 | 4.8 | 0.00 | 0.03 | 0.03 | 39 | 1004.4 |
| 20260509183719 | 27 | 266 | 1.6 | 3.2 | 0.00 | 0.03 | 0.03 | 41 | 1004.5 |
| 20260509183215 | 27 | 257 | 6.4 | 8.0 | 0.00 | 0.03 | 0.03 | 37 | 1004.6 |
| 20260509182711 | 27 | 319 | 6.4 | 8.0 | 0.00 | 0.03 | 0.03 | 31 | 1004.6 |
| 20260509182209 | 27 | 196 | 4.8 | 4.8 | 0.00 | 0.03 | 0.03 | 36 | 1004.6 |
| 20260509181706 | 27 | 116 | 0.0 | 0.0 | 0.00 | 0.03 | 0.03 | 41 | 1005.0 |
| 20260509181203 | 27 | 203 | 1.6 | 1.6 | 0.00 | 0.03 | 0.03 | 41 | 1004.4 |
| 20260509180700 | 27 | 42 | 1.6 | 3.2 | 0.00 | 0.03 | 0.03 | 43 | 1004.7 |
| 20260509180156 | 27 | 156 | 3.2 | 3.2 | 0.00 | 0.03 | 0.03 | 35 | 1004.7 |
| 20260509175652 | 26 | 146 | 1.6 | 1.6 | 0.00 | 0.03 | 0.03 | 46 | 1004.7 |